Location: Ébrard
(44.1333°N, 6.5833°E)
Time: 15:33:05
(UTC+00:00)

Daily predictions for brighter satellites

Satellite Brightness Start Highest point End
(mag) Time Altitude Azimuth Time Altitude Azimuth Time Altitude Azimuth
Cosmos 1943 3.6 19:36:28 10° NNW 19:42:03 65° WSW 19:47:36 10° SSE
ERS-1 Rocket 4.1 19:39:18 10° ESE 19:43:32 28° ENE 19:47:47 10° N
Cosmos 1844 Rocket 2.6 19:42:55 10° SSW 19:48:27 73° ESE 19:54:01 10° NNE
Resurs 01 Rocket 2.6 19:48:44 10° S 19:52:57 46° W 19:57:12 10° NNW
MetOp-B 4.4 19:51:18 10° SSE 19:56:30 56° ENE 20:01:45 10° N
CZ-4 R/B 3.9 19:54:23 10° SW 19:57:30 21° W 20:00:36 10° NW
Okean 2 Rocket 3.4 19:53:30 10° NNW 19:58:01 73° W 20:02:27 10° S
Cosmos 2151 Rocket 4.1 19:54:57 10° NNW 19:59:19 63° W 20:03:42 10° S
Okean O Rocket 2.2 19:56:06 10° S 20:00:21 56° W 20:04:37 10° NNW
MOS 1 4.3 19:56:57 10° SSE 20:02:35 78° ENE 20:08:16 10° NNW
IRS-1C Rocket 4.5 19:57:53 10° SE 20:02:57 51° ENE 20:08:03 10° N
Cosmos 1680 Rocket 4.2 19:59:10 10° NNW 20:04:18 55° WSW 20:09:24 10° S
PSLV R/B 4.3 20:01:27 10° S 20:04:53 51° W 20:08:23 10° NNW
Cosmos 2154 Rocket 4.3 19:59:41 10° SSE 20:05:46 52° E 20:11:54 10° NNE
Cosmos 2074 Rocket 4.0 20:01:08 10° S 20:07:18 67° E 20:13:32 10° NNE
Cosmos 1892 4.1 20:04:31 10° SSW 20:07:49 38° WNW 20:11:10 10° N
Cosmos 1603 4.1 20:02:11 10° NNW 20:07:50 66° WSW 20:13:24 10° SSE
Cosmos 1048 Rocket 4.5 20:05:24 10° N 20:10:36 49° ENE 20:15:23 12° SE
Ariane Rocket 3.9 20:07:17 11° SE 20:11:41 34° ENE 20:16:12 10° N
SPOT 5 3.0 20:10:47 10° SSE 20:15:39 85° ENE 20:20:49 10° NNW
MOS 1 Rocket 3.8 20:11:40 11° SE 20:15:51 42° ENE 20:20:04 10° N
ISS -1.6 20:13:43 10° WNW 20:16:39 28° NNW 20:19:34 10° NE
Cosmos 921 Rocket 3.1 20:14:08 10° N 20:18:14 56° ENE 20:21:45 14° SSE
USA 215 3.4 20:15:52 12° SE 20:22:06 73° SW 20:28:40 10° NW
Cosmos 1328 4.4 20:18:33 10° SSW 20:22:18 56° W 20:26:04 10° N
Cosmos 1825 4.3 20:20:11 10° SW 20:23:03 25° WNW 20:25:57 10° NNW
Cosmos 494 Rocket 4.0 20:20:26 10° NNW 20:25:43 89° WSW 20:30:30 12° SSE
NOSS 2-3 (D) 3.1 20:23:11 10° SSW 20:26:48 61° ESE 20:30:40 10° NE
IRS-1A Rocket 4.3 20:22:05 10° SSE 20:27:43 83° ENE 20:33:31 10° NNW
Okean-O 3.3 20:23:52 10° S 20:28:09 53° W 20:32:28 10° NNW
Timation 2 Rocket 3.9 20:25:05 10° SSW 20:31:23 68° ESE 20:37:28 10° NNE
Gbstr 26 Del rocket 4.5 20:28:22 10° W 20:32:30 42° NNW 20:37:30 10° ENE
Cosmos 1125 Rocket 3.8 20:28:27 10° S 20:33:31 48° ESE 20:38:36 10° NNE
CZ-4C R/B 3.2 20:30:44 10° N 20:34:26 76° WNW 20:37:56 10° SSW
NOSS 3-1 (C) 4.2 20:37:12 17° SE 20:38:30 19° ESE 20:42:13 10° ENE
USA 276 3.0 20:37:46 10° NW 20:40:36 42° NNE 20:42:48 15° E
Cosmos 2084 3.4 20:37:59 10° SW 20:42:10 78° NW 20:46:10 10° NE
SPOT 3 Rocket 3.8 20:38:30 17° SE 20:42:24 59° ENE 20:47:32 10° N
NOSS 2-2 (E) 3.4 20:46:31 10° SW 20:49:47 56° NW 20:52:52 10° NNE
Landsat 4 4.1 20:49:58 25° SE 20:51:25 40° ENE 20:54:40 10° N
In-Cosmos 22 Rocket 4.2 20:45:43 10° S 20:51:29 90° WSW 20:57:10 10° N
Nadezhda 3 Rocket 4.1 20:48:35 10° N 20:54:45 77° W 21:00:16 13° S
BREEZE-M DEB (TANK) 3.7 20:52:09 10° WNW 20:55:11 75° NNE 21:03:15 12° ESE
NOSS 2-3 (E) 3.8 20:52:21 10° SW 20:55:55 59° NW 20:59:53 10° NNE
Cosmos 1544 Rocket 4.0 20:51:49 10° N 20:56:00 45° ENE 20:58:03 26° SE
Terra 1.9 20:52:39 17° S 20:56:19 75° WSW 21:01:04 10° NNW
SL-8 Rocket 4.3 20:55:32 19° SSE 20:59:49 49° E 21:05:51 10° NNE
Cosmos 2327 Rocket 4.5 21:00:13 10° S 21:06:23 90° ESE 21:12:45 10° N
Cosmos 1437 Rocket 3.0 21:07:19 34° SE 21:08:16 43° E 21:11:43 10° NNE
ATLAS CENTAUR R/B 1.5 21:05:00 10° NW 21:08:58 62° WSW 21:10:52 30° SSE
Meteor 2-1 Rocket 4.3 21:09:34 10° NNW 21:15:11 72° W 21:18:58 21° S
Cosmos 1833 Rocket 2.9 21:09:43 10° NNW 21:15:21 63° ENE 21:18:22 27° SE
Cosmos 1455 Rocket 4.3 21:12:17 10° NNW 21:16:21 38° W 21:19:45 14° SSW
Cosmos 1975 Rocket 4.0 21:13:12 10° SSW 21:17:30 48° WNW 21:21:51 10° N
Cosmos 44 3.3 21:13:29 10° SSW 21:18:46 75° ESE 21:23:51 10° NE
Cosmos 962 Rocket 4.5 21:14:54 15° S 21:20:15 88° W 21:26:27 10° N
Spot 1 4.5 21:15:44 10° NNE 21:20:50 65° ESE 21:23:35 27° S
Orbus 7S? 3.5 21:18:34 10° WNW 21:21:03 34° SW 21:21:21 33° SSW
Lacrosse 5 3.9 21:17:27 10° W 21:21:52 29° NNW 21:26:18 10° NE
ERS-1 Rocket 4.1 21:18:03 13° SSW 21:22:08 37° W 21:26:46 10° NNW
Spot 2 Rocket 4.1 21:19:30 18° S 21:23:04 51° W 21:28:03 10° NNW
Cosmos 220 Rocket 3.8 21:22:31 10° NNW 21:26:40 84° WSW 21:28:09 39° SSE
Cosmos 2218 Rocket 4.0 21:23:42 25° S 21:27:20 67° E 21:33:27 10° NNE
Cosmos 864 Rocket 4.5 21:24:18 24° S 21:28:12 70° E 21:34:22 10° NNE
Cosmos 2082 Rocket 3.7 21:23:41 10° N 21:28:21 26° NE 21:31:39 16° E
Landsat 5 3.5 21:27:45 10° NNE 21:32:10 83° ESE 21:34:10 32° S
Cosmos 2278 Rocket 2.5 21:31:13 32° SSE 21:33:15 44° ESE 21:38:36 10° NE
Cosmos 1606 3.7 21:33:25 10° NNW 21:36:43 37° W 21:38:05 26° SW
MetOp-A 3.6 21:35:01 38° SSE 21:36:50 85° ENE 21:41:14 10° NNW
Cosmos 2298 Rocket 4.0 21:33:31 18° SSW 21:37:36 87° WNW 21:42:58 10° NNE
Cosmos 2341 Rocket 4.1 21:33:38 19° SSW 21:38:18 81° W 21:44:42 10° N
Cosmos 614 Rocket 3.9 21:37:41 10° NNW 21:42:46 74° ENE 21:44:35 40° SE
H-2A R/B 4.2 21:44:33 17° E 21:45:18 17° ENE 21:47:54 10° NNE
CZ-2C R/B 4.1 21:41:03 10° NNE 21:45:30 45° E 21:46:20 41° SE
Cosmos 1536 Rocket 3.5 21:47:10 41° SSW 21:48:40 85° W 21:53:00 10° N
Ariane Rocket 4.4 21:47:25 17° SSW 21:50:34 31° W 21:55:05 10° NNW
CZ-4C R/B 4.4 21:45:55 10° NNW 21:51:42 28° NE 21:58:32 10° E
ISS -1.3 21:51:25 10° NW 21:54:05 22° N 21:56:47 10° ENE
USA 290 3.6 21:58:15 30° NE 21:58:15 30° NE 22:00:10 10° NNE
COSMOS 2406 4.4 21:52:58 10° N 21:58:06 34° NE 22:00:48 22° E
ARIANE 5 R/B 2.9 21:58:54 47° ESE 21:59:50 57° ENE 22:04:13 10° N
ATLAS 3B R/B 3.2 22:01:26 35° SSE 22:03:37 44° ESE 22:10:40 10° NE
GENESIS II 4.2 22:00:09 10° NW 22:03:31 55° WSW 22:03:31 55° WSW
Cosmos 1269 Rocket 4.3 22:00:15 10° NNW 22:05:29 56° ENE 22:07:06 40° ESE
BREEZE-M DEB (TANK) 2.9 21:57:04 10° WNW 22:05:39 52° SW 22:06:11 48° SSW
Cosmos 1727 Rocket 4.0 22:00:01 10° N 22:06:22 75° E 22:08:48 40° SSE
Cosmos 2228 4.0 22:02:58 10° NNW 22:06:51 38° W 22:08:06 30° SW
Cosmos 1943 Rocket 2.3 22:08:20 45° SSE 22:09:39 55° ESE 22:15:09 10° NNE
Cosmos 1821 Rocket 3.9 22:09:49 36° S 22:12:36 88° E 22:18:59 10° N
USA 276 4.2 22:12:00 10° WNW 22:13:09 19° W 22:13:09 19° W
Cosmos 2058 3.7 22:19:03 36° E 22:19:03 36° E 22:22:33 10° NNE
ALOS 2 3.7 22:19:19 31° E 22:20:00 33° ENE 22:23:56 10° N
Alouette 2 Rocket 4.2 22:24:00 40° E 22:24:00 40° E 22:28:44 10° NNE
Spot 4 4.2 22:23:23 46° ESE 22:24:21 54° ENE 22:29:05 10° N
Cosmos 2084 Rocket 3.6 22:23:10 10° NNW 22:27:03 52° NE 22:27:21 51° ENE
SeaSat 1 3.0 22:26:56 37° ESE 22:28:22 50° ENE 22:33:08 10° NNW
NOSS 3-1 (C) 3.5 22:24:28 15° SW 22:28:28 59° NW 22:34:15 10° NNE
Cosmos 1812 2.8 22:33:26 10° N 22:36:28 63° N 22:36:28 63° N
Cosmos 1238 Rocket 3.7 22:39:15 10° N 22:42:01 36° ENE 22:42:01 36° ENE
BREEZE-M R/B 4.3 22:38:11 10° W 22:42:40 69° N 22:58:39 10° ENE
PSLV R/B 4.0 22:40:41 10° N 22:44:38 63° WNW 22:44:50 61° W
Cosmos 1892 Rocket 3.6 22:45:05 67° SW 22:45:31 74° W 22:49:59 10° N
Cosmos 1626 Rocket 4.4 22:48:21 36° E 22:48:21 36° E 22:51:59 10° NNE
Cosmos 1140 Rocket 3.5 22:48:49 10° NNW 22:53:57 66° ENE 22:54:48 56° ESE
Cosmos 1833 Rocket 4.4 22:54:44 10° NW 22:58:43 20° W 23:00:03 18° WSW
BREEZE-M DEB (TANK) 4.3 22:59:20 10° WNW 23:02:31 66° NNE 23:11:55 10° ESE
NOSS 3-1 (A) 3.3 23:03:57 38° WSW 23:05:50 66° NW 23:11:41 10° NNE
Cosmos-2242 3.5 23:01:53 10° N 23:05:51 49° ENE 23:05:51 49° ENE
Cosmos 2123 Rocket 3.9 22:59:52 10° N 23:06:11 82° W 23:07:51 52° S
Cosmos 2082 Rocket 2.4 23:07:17 10° NNW 23:12:45 55° WSW 23:13:28 51° SW
Cosmos 1656 Rocket 3.9 23:13:38 47° ESE 23:13:52 48° ESE 23:19:08 10° NE
Cosmos 2278 Rocket 3.8 23:12:59 12° WSW 23:17:28 31° NW 23:22:29 10° N
Lacrosse 4 Rocket 3.6 23:20:40 15° E 23:20:40 15° E 23:21:56 10° ENE
Cosmos 2369 Rocket 2.8 23:19:37 39° ESE 23:19:48 39° ESE 23:24:58 10° NE
H-2A R/B 3.4 23:20:31 36° WNW 23:20:31 36° WNW 23:23:35 10° NNW
ULPM Upper Stage 2.9 23:17:04 10° NW 23:20:59 69° WNW 23:20:59 69° WNW
PSLV R/B 3.5 23:18:05 10° NNE 23:22:20 80° ENE 23:22:20 80° ENE
Iridium 4 Rocket 4.4 23:25:01 10° N 23:30:32 45° E 23:31:55 39° ESE
ISS -2.0 23:28:08 10° NW 23:30:09 31° NNW 23:30:09 31° NNW
USA 229 DEB 3.4 23:32:17 56° S 23:33:24 67° ESE 23:40:01 10° NE
USA 229 3.4 23:32:27 56° S 23:33:33 66° ESE 23:40:08 10° NE
Cosmos 2058 Rocket 4.1 23:30:49 10° NNW 23:34:37 33° W 23:34:37 33° W
Cosmos 1862 3.9 23:35:38 49° NE 23:35:38 49° NE 23:38:41 10° NNE
Cosmos 1782 3.3 23:31:32 10° NNW 23:34:35 52° NW 23:34:35 52° NW
Cosmos 1378 4.4 23:36:09 10° N 23:38:06 34° NNW 23:38:06 34° NNW
CZ-4C R/B 3.0 23:33:48 10° NW 23:41:06 84° NE 23:45:35 32° SE
COSMOS 2455 4.3 23:36:18 10° NNW 23:41:43 33° NE 23:46:53 11° ESE
Meteor 2-2 Rocket 4.2 23:36:36 10° NNW 23:42:22 78° W 23:43:24 60° SSW
COSMOS 2406 3.8 23:37:11 10° NW 23:42:27 40° WSW 23:42:49 40° WSW
Cosmos 2221 3.5 23:42:41 10° N 23:46:38 37° ENE 23:46:52 36° E
Cosmos 1943 Rocket 3.9 23:49:48 13° WSW 23:53:43 26° NW 23:58:24 10° N
Cosmos 1825 Rocket 4.0 23:54:06 50° E 23:54:06 50° E 23:58:07 10° NNE
ALOS 2 4.1 23:56:42 24° W 23:56:42 24° W 23:59:58 10° NW
